Showing default

AGGIESAT6, 68634

Orbit data source: Space-Track

AGGIESAT6, 68634 is an American payload satellite in LEO that was launched on Tue, 07 Apr 2026 UTC via an MINOTAUR IV launch vehicle from the Air Force Western Test Range (AFWTR). Payload-class satellites include a variety of spacecraft equipped with specific instruments for various scientific and technological missions. These include communications satellites like Starlink; space stations such as the ISS; scientific satellites like the Hubble; Earth observation satellites from companies like Planet Labs, Umbra, and HawkEye 360; GPS; miniature CubeSats for education and research; and military/defense satellites.

Loading next visibility...
Identifier
68634, 2026-074H
Orbit
LEO
Country
Flag of USUS
Related business
None
Manufacturer
Unknown
Mission
Operational spacecraft
Bus & Motor
Unknown
Mass
Unknown
Launch date (UTC)
2026-04-07 (2 months ago)
Launch vehicle
MINOTAUR IV
Launch site
Air Force Western Test Range (AFWTR)
Object type
Payload
Rocket body
Debris
Shape & HBR
Unknown shape, 14.5 m
Radar Cross Section
RCS unknown

Expand to show TLE details & history
Last TLE update: 1 day ago

TLE from 1 day ago
0 AGGIESAT6
1 68634U 26074H   26143.52970786  .00006023  00000-0  24171-3 0  9995
2 68634  60.0205 272.3744 0025745  16.7199 343.4725 15.25950745  7038
Epoch: 2026-05-23T12:42Z
TLE epoch observation values (Epoch: 2026-05-23T12:42:46.759Z)
Latitude
-0.00001°
Longitude
-159.46532°
Altitude
472.59 km
Speed
7.64 km/s
True Right ascension
18h 09m 29s
True Declination
0° 00' 00"
Sunlit
Object was in full shadow at epoch
Visualization orbit readout
Latitude
Unknown
Longitude
Unknown
Altitude
Unknown
Speed
Unknown
Apparent Right ascension
Unknown
Apparent Declination
Unknown
Sunlit
N/A
Visualization observer readout
Local Sidereal Time
09:39:44
Azimuth
Unknown
Elevation
Unknown
Doppler factor
Unknown
Orbital elements
Apogee altitude
504.806 km
Perigee altitude
469.457 km
Semi-major axis
6,865.269 km
Eccentricity
0.00257
Inclination
60.0205°
RAAN
272.3744°
Arg. of periapsis
16.7199°
True anomaly
343.38832°
Mean anomaly
343.4725°
Eccentric anomaly
343.43043°
Mean motion
3.81555 °/min
Orbital period
94.35 mins
BSTAR
0.00024171
Loading maneuver chart data...
Computing Atmospheric mass density...
Loading historical data...
Loading historical data...
Loading historical data...
Loading historical data...
Loading historical data...
Loading historical data...
Loading historical data...

Documentation

Showing up to 5 results
|